Time,TemperatureF,DewpointF,PressureIn,WindDirection,WindDirectionDegrees,WindSpeedMPH,WindSpeedGustMPH,Humidity,HourlyPrecipIn,Conditions,Clouds,dailyrainin,SoftwareType,DateUTC
2013-03-07 00:00:00,27.9,24.0,30.29,ESE,108,7.0,21.0,85,0.00,,SKC,0.00,VWS V14.01,2013-03-07 05:00:00,
2013-03-07 00:05:00,27.9,24.3,30.29,North,359,7.0,12.0,86,0.00,,SKC,0.00,VWS V14.01,2013-03-07 05:05:00,
2013-03-07 00:10:00,27.8,23.9,30.29,NNW,328,12.0,13.0,85,0.00,,SKC,0.00,VWS V14.01,2013-03-07 05:10:00,
2013-03-07 00:15:00,27.8,23.9,30.29,North,359,9.0,20.0,85,0.00,,SKC,0.00,VWS V14.01,2013-03-07 05:15:00,
2013-03-07 00:20:00,27.8,23.9,30.29,NNW,341,8.0,20.0,85,0.00,,SKC,0.00,VWS V14.01,2013-03-07 05:20:00,
2013-03-07 00:25:00,27.8,23.9,30.29,NNW,347,10.0,20.0,85,0.00,,SKC,0.00,VWS V14.01,2013-03-07 05:25:00,
2013-03-07 00:30:00,27.7,23.8,30.29,North,349,7.0,20.0,85,0.00,,SKC,0.00,VWS V14.01,2013-03-07 05:30:00,
2013-03-07 00:35:00,27.7,24.1,30.29,NNW,329,7.0,14.0,86,0.00,,SKC,0.00,VWS V14.01,2013-03-07 05:35:00,
2013-03-07 00:40:00,27.6,24.0,30.29,NNE,13,10.0,14.0,86,0.00,,SKC,0.00,VWS V14.01,2013-03-07 05:40:00,
2013-03-07 00:45:00,27.6,24.0,30.29,NNE,20,7.0,14.0,86,0.00,,SKC,0.00,VWS V14.01,2013-03-07 05:45:00,
2013-03-07 00:50:00,27.6,24.0,30.29,North,8,6.0,14.0,86,0.00,,SKC,0.00,VWS V14.01,2013-03-07 05:50:00,
2013-03-07 00:55:00,27.6,24.0,30.29,North,9,3.0,14.0,86,0.00,,SKC,0.00,VWS V14.01,2013-03-07 05:55:00,
2013-03-07 01:00:00,27.5,24.1,30.29,North,358,6.0,14.0,87,0.00,,SKC,0.00,VWS V14.01,2013-03-07 06:00:00,
2013-03-07 01:05:00,27.5,24.1,30.29,NNE,29,3.0,10.0,87,0.00,,SKC,0.00,VWS V14.01,2013-03-07 06:05:00,
2013-03-07 01:10:00,27.5,24.1,30.30,NNE,12,6.0,10.0,87,0.00,,SKC,0.00,VWS V14.01,2013-03-07 06:10:00,
2013-03-07 01:15:00,27.5,24.1,30.30,NNW,346,5.0,10.0,87,0.00,,SKC,0.00,VWS V14.01,2013-03-07 06:15:00,
2013-03-07 01:20:00,27.5,24.1,30.30,North,355,5.0,12.0,87,0.00,,SKC,0.00,VWS V14.01,2013-03-07 06:20:00,
2013-03-07 01:25:00,27.5,23.9,30.30,ENE,60,2.0,12.0,86,0.00,,SKC,0.00,VWS V14.01,2013-03-07 06:25:00,
2013-03-07 01:30:00,27.5,23.9,30.30,NNW,341,7.0,12.0,86,0.00,,SKC,0.00,VWS V14.01,2013-03-07 06:30:00,
2013-03-07 01:35:00,27.5,23.9,30.29,North,360,6.0,8.0,86,0.00,,SKC,0.00,VWS V14.01,2013-03-07 06:35:00,
2013-03-07 01:40:00,27.5,24.1,30.29,North,353,2.0,8.0,87,0.00,,SKC,0.00,VWS V14.01,2013-03-07 06:40:00,
2013-03-07 01:45:00,27.5,23.9,30.29,North,360,4.0,9.0,86,0.00,,SKC,0.00,VWS V14.01,2013-03-07 06:45:00,
2013-03-07 01:50:00,27.5,24.1,30.29,NNW,346,2.0,9.0,87,0.00,,SKC,0.00,VWS V14.01,2013-03-07 06:50:00,
2013-03-07 01:55:00,27.4,24.0,30.29,NNW,327,2.0,9.0,87,0.00,,SKC,0.00,VWS V14.01,2013-03-07 06:55:00,
2013-03-07 02:00:00,27.4,24.0,30.29,NNE,17,3.0,9.0,87,0.00,,SKC,0.00,VWS V14.01,2013-03-07 07:00:00,
2013-03-07 02:05:00,27.4,24.0,30.29,North,354,4.0,6.0,87,0.00,,SKC,0.00,VWS V14.01,2013-03-07 07:05:00,
2013-03-07 02:10:00,27.4,24.0,30.29,NNW,335,2.0,8.0,87,0.00,,SKC,0.00,VWS V14.01,2013-03-07 07:10:00,
2013-03-07 02:15:00,27.4,24.0,30.29,NNE,27,3.0,8.0,87,0.00,,SKC,0.00,VWS V14.01,2013-03-07 07:15:00,
2013-03-07 02:20:00,27.4,24.0,30.29,NNW,340,4.0,8.0,87,0.00,,SKC,0.00,VWS V14.01,2013-03-07 07:20:00,
2013-03-07 02:25:00,27.4,24.0,30.30,NNW,347,5.0,8.0,87,0.00,,SKC,0.00,VWS V14.01,2013-03-07 07:25:00,
2013-03-07 02:30:00,27.4,24.0,30.30,NNW,346,6.0,8.0,87,0.00,,SKC,0.00,VWS V14.01,2013-03-07 07:30:00,
2013-03-07 02:35:00,27.4,24.0,30.30,NNE,26,4.0,8.0,87,0.00,,SKC,0.00,VWS V14.01,2013-03-07 07:35:00,
2013-03-07 02:40:00,27.4,24.0,30.30,NNW,347,2.0,8.0,87,0.00,,SKC,0.00,VWS V14.01,2013-03-07 07:40:00,
2013-03-07 02:45:00,27.4,24.0,30.30,North,349,5.0,8.0,87,0.00,,SKC,0.00,VWS V14.01,2013-03-07 07:45:00,
2013-03-07 02:50:00,27.4,24.0,30.30,NNE,15,3.0,8.0,87,0.00,,SKC,0.00,VWS V14.01,2013-03-07 07:50:00,
2013-03-07 02:55:00,27.4,24.0,30.31,North,360,6.0,10.0,87,0.00,,SKC,0.00,VWS V14.01,2013-03-07 07:55:00,
2013-03-07 03:00:00,27.4,24.0,30.30,NNW,347,3.0,10.0,87,0.00,,SKC,0.00,VWS V14.01,2013-03-07 08:00:00,
2013-03-07 03:05:00,27.4,24.0,30.30,NNW,340,5.0,8.0,87,0.00,,SKC,0.00,VWS V14.01,2013-03-07 08:05:00,
2013-03-07 03:10:00,27.4,24.3,30.30,NNE,24,6.0,9.0,88,0.00,,SKC,0.00,VWS V14.01,2013-03-07 08:10:00,
2013-03-07 03:15:00,27.4,24.3,30.30,North,356,5.0,9.0,88,0.00,,SKC,0.00,VWS V14.01,2013-03-07 08:15:00,
2013-03-07 03:20:00,27.4,24.3,30.29,NNW,342,3.0,9.0,88,0.00,,SKC,0.00,VWS V14.01,2013-03-07 08:20:00,
2013-03-07 03:25:00,27.4,24.3,30.30,North,8,3.0,10.0,88,0.00,,SKC,0.00,VWS V14.01,2013-03-07 08:25:00,
2013-03-07 03:30:00,27.3,24.2,30.30,North,8,9.0,10.0,88,0.00,,SKC,0.00,VWS V14.01,2013-03-07 08:30:00,
2013-03-07 03:35:00,27.4,24.3,30.30,North,355,6.0,12.0,88,0.00,,SKC,0.00,VWS V14.01,2013-03-07 08:35:00,
2013-03-07 03:40:00,27.4,24.3,30.30,North,6,8.0,14.0,88,0.00,,SKC,0.00,VWS V14.01,2013-03-07 08:40:00,
2013-03-07 03:46:00,27.4,24.3,30.31,North,356,7.0,14.0,88,0.00,,SKC,0.00,VWS V14.01,2013-03-07 08:46:00,
2013-03-07 03:51:00,27.4,24.3,30.31,NNW,343,7.0,14.0,88,0.00,,SKC,0.00,VWS V14.01,2013-03-07 08:51:00,
2013-03-07 03:56:00,27.4,24.3,30.31,North,349,6.0,14.0,88,0.00,,SKC,0.00,VWS V14.01,2013-03-07 08:56:00,
2013-03-07 04:00:00,27.3,24.5,30.33,North,357,7.0,10.0,89,0.00,,SKC,0.00,VWS V14.01,2013-03-07 09:00:00,
2013-03-07 04:01:00,27.4,24.3,30.31,NNE,15,8.0,14.0,88,0.00,,SKC,0.00,VWS V14.01,2013-03-07 09:01:00,
2013-03-07 04:06:00,27.4,24.3,30.31,SW,233,1.0,11.0,88,0.00,,SKC,0.00,VWS V14.01,2013-03-07 09:06:00,
2013-03-07 04:11:00,27.4,24.3,30.32,North,8,7.0,11.0,88,0.00,,SKC,0.00,VWS V14.01,2013-03-07 09:11:00,
2013-03-07 04:16:00,27.4,24.3,30.32,North,352,4.0,11.0,88,0.00,,SKC,0.00,VWS V14.01,2013-03-07 09:16:00,
2013-03-07 04:21:00,27.3,24.2,30.32,NNE,20,6.0,11.0,88,0.00,,SKC,0.00,VWS V14.01,2013-03-07 09:21:00,
2013-03-07 04:26:00,27.3,24.2,30.32,North,360,8.0,11.0,88,0.00,,SKC,0.00,VWS V14.01,2013-03-07 09:26:00,
2013-03-07 04:30:00,27.5,24.4,30.34,NNW,341,5.0,13.0,88,0.00,,SKC,0.00,VWS V14.01,2013-03-07 09:30:00,
2013-03-07 04:31:00,27.3,24.5,30.32,NE,41,7.0,11.0,89,0.00,,SKC,0.00,VWS V14.01,2013-03-07 09:31:00,
2013-03-07 04:36:00,27.3,24.5,30.33,NNW,348,4.0,10.0,89,0.00,,SKC,0.00,VWS V14.01,2013-03-07 09:36:00,
2013-03-07 04:41:00,27.4,24.6,30.33,NNW,341,6.0,10.0,89,0.00,,SKC,0.00,VWS V14.01,2013-03-07 09:41:00,
2013-03-07 04:46:00,27.3,24.5,30.33,North,349,4.0,10.0,89,0.00,,SKC,0.00,VWS V14.01,2013-03-07 09:46:00,
2013-03-07 04:51:00,27.4,24.6,30.33,NNW,339,6.0,10.0,89,0.00,,SKC,0.00,VWS V14.01,2013-03-07 09:51:00,
2013-03-07 04:56:00,27.4,24.6,30.33,North,359,4.0,10.0,89,0.00,,SKC,0.00,VWS V14.01,2013-03-07 09:56:00,
2013-03-07 05:00:00,27.6,24.0,30.35,NNE,17,5.0,10.0,86,0.00,,SKC,0.00,VWS V14.01,2013-03-07 10:00:00,
2013-03-07 05:01:00,27.3,24.5,30.33,NNW,335,7.0,7.0,89,0.00,,SKC,0.00,VWS V14.01,2013-03-07 10:01:00,
2013-03-07 05:06:00,27.3,24.5,30.33,North,351,4.0,8.0,89,0.00,,SKC,0.00,VWS V14.01,2013-03-07 10:06:00,
2013-03-07 05:11:00,27.3,24.5,30.33,NNE,12,5.0,10.0,89,0.00,,SKC,0.00,VWS V14.01,2013-03-07 10:11:00,
2013-03-07 05:16:00,27.4,24.6,30.34,NNW,336,4.0,10.0,89,0.00,,SKC,0.00,VWS V14.01,2013-03-07 10:16:00,
2013-03-07 05:21:00,27.4,24.6,30.34,NW,317,7.0,10.0,89,0.00,,SKC,0.00,VWS V14.01,2013-03-07 10:21:00,
2013-03-07 05:26:00,27.4,24.3,30.34,NNW,341,6.0,13.0,88,0.00,,SKC,0.00,VWS V14.01,2013-03-07 10:26:00,
2013-03-07 05:30:00,27.6,23.4,30.35,North,358,1.0,10.0,84,0.00,,SKC,0.00,VWS V14.01,2013-03-07 10:30:00,
2013-03-07 05:31:00,27.5,24.4,30.34,NNW,343,5.0,5.0,88,0.00,,SKC,0.00,VWS V14.01,2013-03-07 10:31:00,
2013-03-07 05:36:00,27.5,24.1,30.34,NNW,347,5.0,9.0,87,0.00,,SKC,0.00,VWS V14.01,2013-03-07 10:36:00,
2013-03-07 05:41:00,27.5,24.1,30.35,ENE,63,6.0,9.0,87,0.00,,SKC,0.00,VWS V14.01,2013-03-07 10:41:00,
2013-03-07 05:46:00,27.6,24.2,30.35,North,354,5.0,9.0,87,0.00,,SKC,0.00,VWS V14.01,2013-03-07 10:46:00,
2013-03-07 05:51:00,27.5,23.9,30.35,NNW,347,4.0,9.0,86,0.00,,SKC,0.00,VWS V14.01,2013-03-07 10:51:00,
2013-03-07 05:56:00,27.6,24.0,30.35,NNE,22,6.0,10.0,86,0.00,,SKC,0.00,VWS V14.01,2013-03-07 10:56:00,
2013-03-07 06:00:00,27.7,23.2,30.35,NNW,345,6.0,11.0,83,0.00,,SKC,0.00,VWS V14.01,2013-03-07 11:00:00,
2013-03-07 06:01:00,27.6,24.0,30.35,NNW,347,6.0,7.0,86,0.00,,SKC,0.00,VWS V14.01,2013-03-07 11:01:00,
2013-03-07 06:06:00,27.6,23.7,30.35,North,359,3.0,9.0,85,0.00,,SKC,0.00,VWS V14.01,2013-03-07 11:06:00,
2013-03-07 06:11:00,27.6,23.7,30.35,NNW,341,6.0,9.0,85,0.00,,SKC,0.00,VWS V14.01,2013-03-07 11:11:00,
2013-03-07 06:16:00,27.6,23.7,30.35,NNE,31,3.0,10.0,85,0.00,,SKC,0.00,VWS V14.01,2013-03-07 11:16:00,
2013-03-07 06:21:00,27.6,23.7,30.35,NNW,345,3.0,10.0,85,0.00,,SKC,0.00,VWS V14.01,2013-03-07 11:21:00,
2013-03-07 06:26:00,27.6,23.7,30.35,NNW,341,7.0,10.0,85,0.00,,SKC,0.00,VWS V14.01,2013-03-07 11:26:00,
2013-03-07 06:30:00,27.8,23.3,30.36,North,8,7.0,11.0,83,0.00,,SKC,0.00,VWS V14.01,2013-03-07 11:30:00,
2013-03-07 06:31:00,27.6,23.4,30.35,NNW,332,3.0,5.0,84,0.00,,SKC,0.00,VWS V14.01,2013-03-07 11:31:00,
2013-03-07 06:36:00,27.6,23.4,30.35,North,4,4.0,6.0,84,0.00,,SKC,0.00,VWS V14.01,2013-03-07 11:36:00,
2013-03-07 06:41:00,27.6,23.4,30.35,North,353,5.0,9.0,84,0.00,,SKC,0.00,VWS V14.01,2013-03-07 11:41:00,
2013-03-07 06:46:00,27.6,23.1,30.35,North,352,11.0,11.0,83,0.00,,SKC,0.00,VWS V14.01,2013-03-07 11:46:00,
2013-03-07 06:51:00,27.7,23.2,30.35,NW,311,2.0,11.0,83,0.00,,SKC,0.00,VWS V14.01,2013-03-07 11:51:00,
2013-03-07 06:56:00,27.7,23.2,30.35,NNW,346,3.0,11.0,83,0.00,,SKC,0.00,VWS V14.01,2013-03-07 11:56:00,
2013-03-07 07:00:00,28.0,23.2,30.37,NNE,24,8.0,11.0,82,0.00,,SKC,0.00,VWS V14.01,2013-03-07 12:00:00,
2013-03-07 07:01:00,27.7,23.2,30.36,North,354,4.0,6.0,83,0.00,,SKC,0.00,VWS V14.01,2013-03-07 12:01:00,
2013-03-07 07:06:00,27.7,23.2,30.36,NNE,12,5.0,7.0,83,0.00,,SKC,0.00,VWS V14.01,2013-03-07 12:06:00,
2013-03-07 07:11:00,27.7,23.2,30.36,NNE,12,4.0,10.0,83,0.00,,SKC,0.00,VWS V14.01,2013-03-07 12:11:00,
2013-03-07 07:16:00,27.7,23.2,30.36,NNW,348,6.0,10.0,83,0.00,,SKC,0.00,VWS V14.01,2013-03-07 12:16:00,
2013-03-07 07:21:00,27.7,22.9,30.36,NNW,330,9.0,10.0,82,0.00,,SKC,0.00,VWS V14.01,2013-03-07 12:21:00,
2013-03-07 07:26:00,27.8,23.3,30.36,NNW,342,3.0,11.0,83,0.00,,SKC,0.00,VWS V14.01,2013-03-07 12:26:00,
2013-03-07 07:30:00,28.3,23.5,30.38,NNW,346,4.0,10.0,82,0.00,,SKC,0.00,VWS V14.01,2013-03-07 12:30:00,
2013-03-07 07:31:00,27.8,23.3,30.36,North,6,6.0,7.0,83,0.00,,SKC,0.00,VWS V14.01,2013-03-07 12:31:00,
2013-03-07 07:36:00,27.8,23.3,30.36,North,351,6.0,7.0,83,0.00,,SKC,0.00,VWS V14.01,2013-03-07 12:36:00,
2013-03-07 07:41:00,27.8,23.3,30.36,NNW,332,4.0,9.0,83,0.00,,SKC,0.00,VWS V14.01,2013-03-07 12:41:00,
2013-03-07 07:46:00,27.8,23.3,30.36,NNW,341,6.0,9.0,83,0.00,,SKC,0.00,VWS V14.01,2013-03-07 12:46:00,
2013-03-07 07:51:00,27.9,23.4,30.36,NNE,18,7.0,9.0,83,0.00,,SKC,0.00,VWS V14.01,2013-03-07 12:51:00,
2013-03-07 07:56:00,27.9,23.4,30.36,NNE,26,8.0,11.0,83,0.00,,SKC,0.00,VWS V14.01,2013-03-07 12:56:00,
2013-03-07 08:00:00,28.8,23.7,30.39,NNW,330,3.0,12.0,81,0.00,,SKC,0.00,VWS V14.01,2013-03-07 13:00:00,
2013-03-07 08:01:00,28.0,23.2,30.37,North,351,7.0,10.0,82,0.00,,SKC,0.00,VWS V14.01,2013-03-07 13:01:00,
2013-03-07 08:06:00,28.1,23.3,30.37,NE,35,5.0,10.0,82,0.00,,SKC,0.00,VWS V14.01,2013-03-07 13:06:00,
2013-03-07 08:11:00,28.1,23.3,30.37,NNW,343,6.0,10.0,82,0.00,,SKC,0.00,VWS V14.01,2013-03-07 13:11:00,
2013-03-07 08:16:00,28.2,23.4,30.37,NNE,24,5.0,10.0,82,0.00,,SKC,0.00,VWS V14.01,2013-03-07 13:16:00,
2013-03-07 08:21:00,28.3,23.5,30.38,NNW,338,6.0,10.0,82,0.00,,SKC,0.00,VWS V14.01,2013-03-07 13:21:00,
2013-03-07 08:26:00,28.3,23.5,30.38,NNW,346,5.0,10.0,82,0.00,,SKC,0.00,VWS V14.01,2013-03-07 13:26:00,
2013-03-07 08:30:00,29.3,24.5,30.39,NNE,13,6.0,12.0,82,0.00,,SKC,0.00,VWS V14.01,2013-03-07 13:30:00,
2013-03-07 08:31:00,28.3,23.5,30.38,NNW,339,5.0,5.0,82,0.00,,SKC,0.00,VWS V14.01,2013-03-07 13:31:00,
2013-03-07 08:36:00,28.4,23.6,30.38,North,352,5.0,11.0,82,0.00,,SKC,0.00,VWS V14.01,2013-03-07 13:36:00,
2013-03-07 08:41:00,28.5,23.7,30.38,NW,326,6.0,11.0,82,0.00,,SKC,0.00,VWS V14.01,2013-03-07 13:41:00,
2013-03-07 08:46:00,28.5,23.7,30.39,North,351,5.0,11.0,82,0.00,,SKC,0.00,VWS V14.01,2013-03-07 13:46:00,
2013-03-07 08:51:00,28.6,23.8,30.38,North,1,12.0,12.0,82,0.00,,SKC,0.00,VWS V14.01,2013-03-07 13:51:00,
2013-03-07 08:56:00,28.7,23.9,30.39,NNW,338,7.0,12.0,82,0.00,,SKC,0.00,VWS V14.01,2013-03-07 13:56:00,
2013-03-07 09:00:00,30.1,24.4,30.39,North,353,3.0,12.0,79,0.00,,SKC,0.00,VWS V14.01,2013-03-07 14:00:00,
2013-03-07 09:01:00,28.8,23.7,30.39,NNE,18,7.0,7.0,81,0.00,,SKC,0.00,VWS V14.01,2013-03-07 14:01:00,
2013-03-07 09:06:00,28.9,23.8,30.39,NNW,347,7.0,9.0,81,0.00,,SKC,0.00,VWS V14.01,2013-03-07 14:06:00,
2013-03-07 09:11:00,29.0,23.9,30.39,North,358,7.0,9.0,81,0.00,,SKC,0.00,VWS V14.01,2013-03-07 14:11:00,
2013-03-07 09:16:00,29.0,23.9,30.39,NNW,333,6.0,9.0,81,0.00,,SKC,0.00,VWS V14.01,2013-03-07 14:16:00,
2013-03-07 09:21:00,29.2,24.1,30.39,North,6,8.0,9.0,81,0.00,,SKC,0.00,VWS V14.01,2013-03-07 14:21:00,
2013-03-07 09:26:00,29.2,24.1,30.39,NNW,347,4.0,12.0,81,0.00,,SKC,0.00,VWS V14.01,2013-03-07 14:26:00,
2013-03-07 09:30:00,30.8,24.8,30.38,NNE,15,8.0,14.0,78,0.00,,SKC,0.00,VWS V14.01,2013-03-07 14:30:00,
2013-03-07 09:31:00,29.3,24.2,30.39,NW,326,4.0,6.0,81,0.00,,SKC,0.00,VWS V14.01,2013-03-07 14:31:00,
2013-03-07 09:36:00,29.4,24.0,30.39,NNE,31,5.0,11.0,80,0.00,,SKC,0.00,VWS V14.01,2013-03-07 14:36:00,
2013-03-07 09:41:00,29.6,24.2,30.39,NNW,345,6.0,11.0,80,0.00,,SKC,0.00,VWS V14.01,2013-03-07 14:41:00,
2013-03-07 09:46:00,29.7,24.3,30.39,North,354,8.0,11.0,80,0.00,,SKC,0.00,VWS V14.01,2013-03-07 14:46:00,
2013-03-07 09:52:00,29.9,24.5,30.39,NNW,328,4.0,11.0,80,0.00,,SKC,0.00,VWS V14.01,2013-03-07 14:52:00,
2013-03-07 09:57:00,30.1,24.7,30.39,NNE,27,8.0,12.0,80,0.00,,SKC,0.00,VWS V14.01,2013-03-07 14:57:00,
2013-03-07 10:00:00,31.5,25.4,30.38,NW,317,6.0,14.0,78,0.00,,SKC,0.00,VWS V14.01,2013-03-07 15:00:00,
2013-03-07 10:02:00,30.2,24.5,30.39,NE,45,5.0,6.0,79,0.00,,SKC,0.00,VWS V14.01,2013-03-07 15:02:00,
2013-03-07 10:07:00,30.4,24.7,30.39,North,4,2.0,8.0,79,0.00,,SKC,0.00,VWS V14.01,2013-03-07 15:07:00,
2013-03-07 10:12:00,30.5,24.5,30.39,NNW,343,6.0,14.0,78,0.00,,SKC,0.00,VWS V14.01,2013-03-07 15:12:00,
2013-03-07 10:17:00,30.6,24.6,30.39,North,8,10.0,14.0,78,0.00,,SKC,0.00,VWS V14.01,2013-03-07 15:17:00,
2013-03-07 10:22:00,30.6,24.6,30.39,WNW,293,5.0,14.0,78,0.00,,SKC,0.00,VWS V14.01,2013-03-07 15:22:00,
2013-03-07 10:27:00,30.6,24.6,30.39,NNW,339,6.0,14.0,78,0.00,,SKC,0.00,VWS V14.01,2013-03-07 15:27:00,
2013-03-07 10:30:00,33.2,27.1,30.37,WNW,301,6.0,14.0,78,0.00,,SKC,0.00,VWS V14.01,2013-03-07 15:30:00,
2013-03-07 10:32:00,30.8,24.8,30.38,NNW,330,7.0,8.0,78,0.00,,SKC,0.00,VWS V14.01,2013-03-07 15:32:00,
2013-03-07 10:37:00,30.9,24.9,30.38,NNW,347,6.0,10.0,78,0.00,,SKC,0.00,VWS V14.01,2013-03-07 15:37:00,
2013-03-07 10:42:00,31.2,25.1,30.38,NNW,346,7.0,10.0,78,0.00,,SKC,0.00,VWS V14.01,2013-03-07 15:42:00,
2013-03-07 10:47:00,31.2,25.1,30.38,NW,326,8.0,13.0,78,0.00,,SKC,0.00,VWS V14.01,2013-03-07 15:47:00,
2013-03-07 10:52:00,31.2,25.1,30.38,NNE,22,7.0,13.0,78,0.00,,SKC,0.00,VWS V14.01,2013-03-07 15:52:00,
2013-03-07 10:57:00,31.3,24.9,30.38,NW,309,5.0,14.0,77,0.00,,SKC,0.00,VWS V14.01,2013-03-07 15:57:00,
2013-03-07 11:00:00,33.7,27.9,30.37,NNW,347,4.0,13.0,79,0.00,,SKC,0.00,VWS V14.01,2013-03-07 16:00:00,
2013-03-07 11:02:00,31.6,25.2,30.38,SW,214,3.0,9.0,77,0.00,,SKC,0.00,VWS V14.01,2013-03-07 16:02:00,
2013-03-07 11:07:00,32.0,25.9,30.38,NNE,22,6.0,10.0,78,0.00,,SKC,0.00,VWS V14.01,2013-03-07 16:07:00,
2013-03-07 11:12:00,32.0,25.6,30.38,NNE,20,8.0,14.0,77,0.00,,SKC,0.00,VWS V14.01,2013-03-07 16:12:00,
2013-03-07 11:17:00,32.3,25.9,30.38,NW,326,4.0,14.0,77,0.00,,SKC,0.00,VWS V14.01,2013-03-07 16:17:00,
2013-03-07 11:22:00,33.1,27.3,30.38,North,8,8.0,14.0,79,0.00,,SKC,0.00,VWS V14.01,2013-03-07 16:22:00,
2013-03-07 11:27:00,32.9,26.5,30.37,North,5,4.0,14.0,77,0.00,,SKC,0.00,VWS V14.01,2013-03-07 16:27:00,
2013-03-07 11:30:00,34.2,27.4,30.36,WNW,287,2.0,19.0,76,0.00,,SKC,0.00,VWS V14.01,2013-03-07 16:30:00,
2013-03-07 11:32:00,33.4,27.3,30.37,WNW,300,6.0,9.0,78,0.00,,SKC,0.00,VWS V14.01,2013-03-07 16:32:00,
2013-03-07 11:37:00,33.8,27.7,30.37,NNW,343,8.0,9.0,78,0.00,,SKC,0.00,VWS V14.01,2013-03-07 16:37:00,
2013-03-07 11:42:00,34.0,26.9,30.37,North,4,4.0,11.0,75,0.00,,SKC,0.00,VWS V14.01,2013-03-07 16:42:00,
2013-03-07 11:47:00,33.6,26.9,30.37,North,349,4.0,11.0,76,0.00,,SKC,0.00,VWS V14.01,2013-03-07 16:47:00,
2013-03-07 11:52:00,33.6,26.9,30.38,WSW,257,5.0,13.0,76,0.00,,SKC,0.00,VWS V14.01,2013-03-07 16:52:00,
2013-03-07 11:57:00,33.5,26.8,30.37,ENE,63,5.0,13.0,76,0.00,,SKC,0.00,VWS V14.01,2013-03-07 16:57:00,
2013-03-07 12:00:00,34.5,27.7,30.36,West,267,5.0,17.0,76,0.00,,SKC,0.00,VWS V14.01,2013-03-07 17:00:00,
2013-03-07 12:02:00,33.7,27.3,30.38,NNE,19,14.0,14.0,77,0.00,,SKC,0.00,VWS V14.01,2013-03-07 17:02:00,
2013-03-07 12:08:00,33.1,26.4,30.38,NNW,341,7.0,19.0,76,0.00,,SKC,0.00,VWS V14.01,2013-03-07 17:08:00,
2013-03-07 12:13:00,33.4,27.3,30.37,North,8,6.0,19.0,78,0.00,,SKC,0.00,VWS V14.01,2013-03-07 17:13:00,
2013-03-07 12:18:00,33.5,27.1,30.37,WSW,239,1.0,19.0,77,0.00,,SKC,0.00,VWS V14.01,2013-03-07 17:18:00,
2013-03-07 12:23:00,33.5,27.1,30.36,West,274,2.0,19.0,77,0.00,,SKC,0.00,VWS V14.01,2013-03-07 17:23:00,
2013-03-07 12:28:00,33.9,27.5,30.36,WNW,296,6.0,19.0,77,0.00,,SKC,0.00,VWS V14.01,2013-03-07 17:28:00,
2013-03-07 12:30:00,35.2,28.1,30.35,NW,325,4.0,15.0,75,0.00,,SKC,0.00,VWS V14.01,2013-03-07 17:30:00,
2013-03-07 12:33:00,34.3,27.5,30.36,NW,324,4.0,13.0,76,0.00,,SKC,0.00,VWS V14.01,2013-03-07 17:33:00,
2013-03-07 12:38:00,34.4,28.0,30.36,North,353,5.0,13.0,77,0.00,,SKC,0.00,VWS V14.01,2013-03-07 17:38:00,
2013-03-07 12:43:00,34.3,27.5,30.36,NW,322,9.0,17.0,76,0.00,,SKC,0.00,VWS V14.01,2013-03-07 17:43:00,
2013-03-07 12:48:00,34.1,27.0,30.36,West,273,7.0,17.0,75,0.00,,SKC,0.00,VWS V14.01,2013-03-07 17:48:00,
2013-03-07 12:53:00,34.2,27.8,30.36,NW,324,8.0,17.0,77,0.00,,SKC,0.00,VWS V14.01,2013-03-07 17:53:00,
2013-03-07 12:58:00,34.4,27.3,30.36,NNW,332,5.0,17.0,75,0.00,,SKC,0.00,VWS V14.01,2013-03-07 17:58:00,
2013-03-07 13:00:00,35.2,28.1,30.34,NW,315,5.0,20.0,75,0.00,,SKC,0.00,VWS V14.01,2013-03-07 18:00:00,
2013-03-07 13:03:00,34.7,27.9,30.36,North,8,5.0,14.0,76,0.00,,SKC,0.00,VWS V14.01,2013-03-07 18:03:00,
2013-03-07 13:08:00,34.9,27.8,30.36,SSE,159,4.0,14.0,75,0.00,,SKC,0.00,VWS V14.01,2013-03-07 18:08:00,
2013-03-07 13:13:00,35.3,28.5,30.36,NE,36,5.0,14.0,76,0.00,,SKC,0.00,VWS V14.01,2013-03-07 18:13:00,
2013-03-07 13:18:00,35.1,28.0,30.35,NW,322,4.0,14.0,75,0.00,,SKC,0.00,VWS V14.01,2013-03-07 18:18:00,
2013-03-07 13:23:00,35.0,28.2,30.35,WNW,283,3.0,14.0,76,0.00,,SKC,0.00,VWS V14.01,2013-03-07 18:23:00,
2013-03-07 13:28:00,35.2,27.8,30.35,WNW,301,5.0,14.0,74,0.00,,SKC,0.00,VWS V14.01,2013-03-07 18:28:00,
2013-03-07 13:30:00,35.5,28.0,30.34,NNE,22,6.0,19.0,74,0.00,,SKC,0.00,VWS V14.01,2013-03-07 18:30:00,
2013-03-07 13:33:00,35.1,27.7,30.35,NW,317,7.0,11.0,74,0.00,,SKC,0.00,VWS V14.01,2013-03-07 18:33:00,
2013-03-07 13:38:00,35.4,28.6,30.35,NNW,338,9.0,11.0,76,0.00,,SKC,0.00,VWS V14.01,2013-03-07 18:38:00,
2013-03-07 13:43:00,35.0,27.6,30.35,NNW,345,6.0,16.0,74,0.00,,SKC,0.00,VWS V14.01,2013-03-07 18:43:00,
2013-03-07 13:48:00,35.0,27.9,30.35,North,5,15.0,20.0,75,0.00,,SKC,0.00,VWS V14.01,2013-03-07 18:48:00,
2013-03-07 13:53:00,35.2,28.1,30.34,North,354,15.0,20.0,75,0.00,,SKC,0.00,VWS V14.01,2013-03-07 18:53:00,
2013-03-07 13:58:00,35.0,27.6,30.34,North,356,5.0,20.0,74,0.00,,SKC,0.00,VWS V14.01,2013-03-07 18:58:00,
2013-03-07 14:00:00,35.1,28.0,30.33,North,359,6.0,17.0,75,0.00,,SKC,0.00,VWS V14.01,2013-03-07 19:00:00,
2013-03-07 14:03:00,35.2,28.1,30.34,NW,304,4.0,11.0,75,0.00,,SKC,0.00,VWS V14.01,2013-03-07 19:03:00,
2013-03-07 14:08:00,35.4,28.3,30.34,NNE,26,7.0,19.0,75,0.00,,SKC,0.00,VWS V14.01,2013-03-07 19:08:00,
2013-03-07 14:13:00,35.4,28.0,30.34,West,266,3.0,19.0,74,0.00,,SKC,0.00,VWS V14.01,2013-03-07 19:13:00,
2013-03-07 14:18:00,35.5,28.4,30.34,West,268,1.0,19.0,75,0.00,,SKC,0.00,VWS V14.01,2013-03-07 19:18:00,
2013-03-07 14:23:00,35.8,28.7,30.34,NW,314,7.0,19.0,75,0.00,,SKC,0.00,VWS V14.01,2013-03-07 19:23:00,
2013-03-07 14:28:00,35.3,27.9,30.34,NNW,345,10.0,19.0,74,0.00,,SKC,0.00,VWS V14.01,2013-03-07 19:28:00,
2013-03-07 14:30:00,35.8,27.7,30.33,NNE,15,8.0,15.0,72,0.00,,SKC,0.00,VWS V14.01,2013-03-07 19:30:00,
2013-03-07 14:33:00,35.5,28.4,30.34,North,11,5.0,10.0,75,0.00,,SKC,0.00,VWS V14.01,2013-03-07 19:33:00,
2013-03-07 14:38:00,35.6,28.5,30.34,NNW,348,10.0,14.0,75,0.00,,SKC,0.00,VWS V14.01,2013-03-07 19:38:00,
2013-03-07 14:43:00,35.0,27.6,30.34,NNW,343,13.0,17.0,74,0.00,,SKC,0.00,VWS V14.01,2013-03-07 19:43:00,
2013-03-07 14:48:00,34.7,27.3,30.34,NNE,25,4.0,17.0,74,0.00,,SKC,0.00,VWS V14.01,2013-03-07 19:48:00,
2013-03-07 14:53:00,35.1,27.3,30.34,NW,317,7.0,17.0,73,0.00,,SKC,0.00,VWS V14.01,2013-03-07 19:53:00,
2013-03-07 14:58:00,34.9,27.1,30.33,NNW,348,3.0,17.0,73,0.00,,SKC,0.00,VWS V14.01,2013-03-07 19:58:00,
2013-03-07 15:00:00,35.9,28.1,30.34,NNW,333,5.0,18.0,73,0.00,,SKC,0.00,VWS V14.01,2013-03-07 20:00:00,
2013-03-07 15:03:00,35.3,27.9,30.33,NNW,336,4.0,7.0,74,0.00,,SKC,0.00,VWS V14.01,2013-03-07 20:03:00,
2013-03-07 15:08:00,35.7,27.9,30.33,NNE,15,10.0,15.0,73,0.00,,SKC,0.00,VWS V14.01,2013-03-07 20:08:00,
2013-03-07 15:14:00,35.5,28.0,30.33,NNW,332,3.0,15.0,74,0.00,,SKC,0.00,VWS V14.01,2013-03-07 20:14:00,
2013-03-07 15:19:00,35.6,28.1,30.33,NNE,16,6.0,15.0,74,0.00,,SKC,0.00,VWS V14.01,2013-03-07 20:19:00,
2013-03-07 15:24:00,35.7,27.9,30.33,NNW,343,4.0,15.0,73,0.00,,SKC,0.00,VWS V14.01,2013-03-07 20:24:00,
2013-03-07 15:29:00,35.9,28.1,30.33,NW,319,8.0,15.0,73,0.00,,SKC,0.00,VWS V14.01,2013-03-07 20:29:00,
2013-03-07 15:30:00,35.5,27.7,30.34,WNW,293,6.0,17.0,73,0.00,,SKC,0.00,VWS V14.01,2013-03-07 20:30:00,
2013-03-07 15:34:00,35.6,27.5,30.33,NE,37,5.0,15.0,72,0.00,,SKC,0.00,VWS V14.01,2013-03-07 20:34:00,
2013-03-07 15:39:00,35.8,28.0,30.33,NNW,335,5.0,15.0,73,0.00,,SKC,0.00,VWS V14.01,2013-03-07 20:39:00,
2013-03-07 15:44:00,36.1,28.3,30.33,North,354,10.0,15.0,73,0.00,,SKC,0.00,VWS V14.01,2013-03-07 20:44:00,
2013-03-07 15:49:00,36.1,28.3,30.33,NNW,346,8.0,15.0,73,0.00,,SKC,0.00,VWS V14.01,2013-03-07 20:49:00,
2013-03-07 15:54:00,36.3,28.5,30.34,North,5,7.0,18.0,73,0.00,,SKC,0.00,VWS V14.01,2013-03-07 20:54:00,
2013-03-07 15:59:00,35.9,28.1,30.33,NNW,338,8.0,18.0,73,0.00,,SKC,0.00,VWS V14.01,2013-03-07 20:59:00,
2013-03-07 16:00:00,35.3,27.5,30.35,NNW,343,5.0,11.0,73,0.00,,SKC,0.00,VWS V14.01,2013-03-07 21:00:00,
2013-03-07 16:04:00,35.7,27.6,30.34,North,1,9.0,15.0,72,0.00,,SKC,0.00,VWS V14.01,2013-03-07 21:04:00,
2013-03-07 16:09:00,35.9,28.1,30.34,NNE,19,12.0,15.0,73,0.00,,SKC,0.00,VWS V14.01,2013-03-07 21:09:00,
2013-03-07 16:14:00,36.1,28.6,30.34,North,354,7.0,15.0,74,0.00,,SKC,0.00,VWS V14.01,2013-03-07 21:14:00,
2013-03-07 16:19:00,36.4,28.6,30.34,North,355,13.0,15.0,73,0.00,,SKC,0.00,VWS V14.01,2013-03-07 21:19:00,
2013-03-07 16:24:00,36.0,27.9,30.34,NNW,332,7.0,16.0,72,0.00,,SKC,0.00,VWS V14.01,2013-03-07 21:24:00,
2013-03-07 16:29:00,35.6,27.1,30.34,North,356,10.0,17.0,71,0.00,,SKC,0.00,VWS V14.01,2013-03-07 21:29:00,
2013-03-07 16:30:00,34.3,26.9,30.35,NNW,327,6.0,18.0,74,0.00,,SKC,0.00,VWS V14.01,2013-03-07 21:30:00,
2013-03-07 16:34:00,35.6,27.8,30.34,WNW,283,2.0,9.0,73,0.00,,SKC,0.00,VWS V14.01,2013-03-07 21:34:00,
2013-03-07 16:40:00,35.6,27.8,30.34,WNW,302,9.0,11.0,73,0.00,,SKC,0.00,VWS V14.01,2013-03-07 21:40:00,
2013-03-07 16:45:00,35.5,27.7,30.34,NNW,347,8.0,11.0,73,0.00,,SKC,0.00,VWS V14.01,2013-03-07 21:45:00,
2013-03-07 16:50:00,35.3,27.5,30.35,NW,317,3.0,11.0,73,0.00,,SKC,0.00,VWS V14.01,2013-03-07 21:50:00,
2013-03-07 16:55:00,35.3,27.2,30.35,NW,317,4.0,11.0,72,0.00,,SKC,0.00,VWS V14.01,2013-03-07 21:55:00,
2013-03-07 17:00:00,35.3,27.5,30.35,WSW,239,5.0,11.0,73,0.00,,SKC,0.00,VWS V14.01,2013-03-07 22:00:00,
2013-03-07 17:05:00,35.2,27.4,30.35,NNW,345,9.0,9.0,73,0.00,,SKC,0.00,VWS V14.01,2013-03-07 22:05:00,
2013-03-07 17:10:00,35.0,27.2,30.35,West,278,7.0,14.0,73,0.00,,SKC,0.00,VWS V14.01,2013-03-07 22:10:00,
2013-03-07 17:14:00,35.0,27.2,30.35,NNW,345,8.0,14.0,73,0.00,,SKC,0.00,VWS V14.01,2013-03-07 22:14:00,
2013-03-07 17:19:00,35.1,27.3,30.35,NNW,343,6.0,14.0,73,0.00,,SKC,0.00,VWS V14.01,2013-03-07 22:19:00,
2013-03-07 17:24:00,34.8,27.0,30.35,NNW,340,11.0,14.0,73,0.00,,SKC,0.00,VWS V14.01,2013-03-07 22:24:00,
2013-03-07 17:29:00,34.3,26.9,30.35,NNE,31,9.0,18.0,74,0.00,,SKC,0.00,VWS V14.01,2013-03-07 22:29:00,
2013-03-07 17:30:00,31.2,25.8,30.37,NNW,345,6.0,14.0,80,0.00,,SKC,0.00,VWS V14.01,2013-03-07 22:30:00,
2013-03-07 17:34:00,34.2,26.8,30.36,North,5,3.0,10.0,74,0.00,,SKC,0.00,VWS V14.01,2013-03-07 22:34:00,
2013-03-07 17:39:00,34.0,26.9,30.36,NNW,342,6.0,11.0,75,0.00,,SKC,0.00,VWS V14.01,2013-03-07 22:39:00,
2013-03-07 17:44:00,33.8,26.7,30.36,NNW,331,3.0,11.0,75,0.00,,SKC,0.00,VWS V14.01,2013-03-07 22:44:00,
2013-03-07 17:49:00,33.7,26.6,30.36,North,353,9.0,11.0,75,0.00,,SKC,0.00,VWS V14.01,2013-03-07 22:49:00,
2013-03-07 17:54:00,33.4,26.3,30.36,NW,311,3.0,15.0,75,0.00,,SKC,0.00,VWS V14.01,2013-03-07 22:54:00,
2013-03-07 17:59:00,33.1,26.4,30.36,North,356,6.0,15.0,76,0.00,,SKC,0.00,VWS V14.01,2013-03-07 22:59:00,
2013-03-07 18:00:00,30.5,25.4,30.37,NNW,339,6.0,13.0,81,0.00,,SKC,0.00,VWS V14.01,2013-03-07 23:00:00,
2013-03-07 18:04:00,32.7,26.0,30.36,NNW,342,3.0,8.0,76,0.00,,SKC,0.00,VWS V14.01,2013-03-07 23:04:00,
2013-03-07 18:09:00,32.5,26.1,30.37,NNW,331,3.0,8.0,77,0.00,,SKC,0.00,VWS V14.01,2013-03-07 23:09:00,
2013-03-07 18:14:00,32.1,26.0,30.37,NW,312,2.0,9.0,78,0.00,,SKC,0.00,VWS V14.01,2013-03-07 23:14:00,
2013-03-07 18:20:00,31.7,25.9,30.37,NNW,336,4.0,10.0,79,0.00,,SKC,0.00,VWS V14.01,2013-03-07 23:20:00,
2013-03-07 18:25:00,31.4,25.6,30.37,North,5,5.0,10.0,79,0.00,,SKC,0.00,VWS V14.01,2013-03-07 23:25:00,
2013-03-07 18:30:00,31.2,25.5,30.37,NNW,345,6.0,14.0,79,0.00,,SKC,0.00,VWS V14.01,2013-03-07 23:30:00,
2013-03-07 18:35:00,31.0,25.6,30.37,NNW,332,9.0,10.0,80,0.00,,SKC,0.00,VWS V14.01,2013-03-07 23:35:00,
2013-03-07 18:40:00,30.9,25.5,30.37,NNW,342,9.0,11.0,80,0.00,,SKC,0.00,VWS V14.01,2013-03-07 23:40:00,
2013-03-07 18:45:00,30.8,25.7,30.37,NNW,347,7.0,13.0,81,0.00,,SKC,0.00,VWS V14.01,2013-03-07 23:45:00,
2013-03-07 18:50:00,30.7,25.6,30.37,WNW,300,3.0,13.0,81,0.00,,SKC,0.00,VWS V14.01,2013-03-07 23:50:00,
2013-03-07 18:55:00,30.6,25.5,30.37,NNW,327,5.0,13.0,81,0.00,,SKC,0.00,VWS V14.01,2013-03-07 23:55:00,
2013-03-07 19:00:00,30.5,25.4,30.37,NNW,343,4.0,13.0,81,0.00,,SKC,0.00,VWS V14.01,2013-03-08 00:00:00,
2013-03-07 19:05:00,30.5,25.4,30.38,NNW,347,7.0,8.0,81,0.00,,SKC,0.00,VWS V14.01,2013-03-08 00:05:00,
2013-03-07 19:10:00,30.3,25.2,30.38,North,349,5.0,8.0,81,0.00,,SKC,0.00,VWS V14.01,2013-03-08 00:10:00,
2013-03-07 19:15:00,30.3,25.2,30.38,NNW,347,3.0,15.0,81,0.00,,SKC,0.00,VWS V14.01,2013-03-08 00:15:00,
2013-03-07 19:20:00,30.2,25.1,30.38,NNE,13,5.0,15.0,81,0.00,,SKC,0.00,VWS V14.01,2013-03-08 00:20:00,
2013-03-07 19:25:00,30.1,25.0,30.38,NNE,13,9.0,15.0,81,0.00,,SKC,0.00,VWS V14.01,2013-03-08 00:25:00,
2013-03-07 19:30:00,30.1,25.0,30.38,NNW,335,3.0,15.0,81,0.00,,SKC,0.00,VWS V14.01,2013-03-08 00:30:00,
2013-03-07 19:35:00,30.0,25.2,30.38,NNW,335,5.0,7.0,82,0.00,,SKC,0.00,VWS V14.01,2013-03-08 00:35:00,
2013-03-07 19:40:00,30.0,25.2,30.39,NNW,336,6.0,8.0,82,0.00,,SKC,0.00,VWS V14.01,2013-03-08 00:40:00,
2013-03-07 19:45:00,30.0,25.2,30.39,NE,41,4.0,8.0,82,0.00,,SKC,0.00,VWS V14.01,2013-03-08 00:45:00,
2013-03-07 19:50:00,29.9,25.1,30.39,North,353,3.0,10.0,82,0.00,,SKC,0.00,VWS V14.01,2013-03-08 00:50:00,
2013-03-07 19:55:00,29.8,25.0,30.39,NNW,348,6.0,10.0,82,0.00,,SKC,0.00,VWS V14.01,2013-03-08 00:55:00,
2013-03-07 20:00:00,29.8,25.0,30.40,North,359,3.0,10.0,82,0.00,,SKC,0.00,VWS V14.01,2013-03-08 01:00:00,
2013-03-07 20:05:00,29.8,25.0,30.40,North,356,4.0,6.0,82,0.00,,SKC,0.00,VWS V14.01,2013-03-08 01:05:00,
2013-03-07 20:10:00,29.7,24.9,30.40,NW,315,1.0,7.0,82,0.00,,SKC,0.00,VWS V14.01,2013-03-08 01:10:00,
2013-03-07 20:15:00,29.8,25.0,30.40,North,6,10.0,11.0,82,0.00,,SKC,0.00,VWS V14.01,2013-03-08 01:15:00,
2013-03-07 20:20:00,29.8,25.0,30.40,North,353,4.0,11.0,82,0.00,,SKC,0.00,VWS V14.01,2013-03-08 01:20:00,
2013-03-07 20:25:00,29.8,25.0,30.40,North,359,4.0,11.0,82,0.00,,SKC,0.00,VWS V14.01,2013-03-08 01:25:00,
2013-03-07 20:30:00,29.7,24.9,30.41,NNE,15,5.0,11.0,82,0.00,,SKC,0.00,VWS V14.01,2013-03-08 01:30:00,
2013-03-07 20:35:00,29.7,24.9,30.40,NNW,340,5.0,7.0,82,0.00,,SKC,0.00,VWS V14.01,2013-03-08 01:35:00,
2013-03-07 20:40:00,29.6,24.8,30.41,North,356,4.0,7.0,82,0.00,,SKC,0.00,VWS V14.01,2013-03-08 01:40:00,
2013-03-07 20:45:00,29.6,24.8,30.41,North,1,5.0,7.0,82,0.00,,SKC,0.00,VWS V14.01,2013-03-08 01:45:00,
2013-03-07 20:50:00,29.6,24.8,30.40,NNW,332,1.0,8.0,82,0.00,,SKC,0.00,VWS V14.01,2013-03-08 01:50:00,
2013-03-07 20:55:00,29.6,24.8,30.41,NNW,339,4.0,8.0,82,0.00,,SKC,0.00,VWS V14.01,2013-03-08 01:55:00,
2013-03-07 21:00:00,29.7,24.9,30.41,NNW,344,4.0,8.0,82,0.00,,SKC,0.00,VWS V14.01,2013-03-08 02:00:00,
2013-03-07 21:05:00,29.6,25.1,30.41,NNW,342,1.0,4.0,83,0.00,,SKC,0.00,VWS V14.01,2013-03-08 02:05:00,
2013-03-07 21:10:00,29.6,25.1,30.41,NNW,347,2.0,4.0,83,0.00,,SKC,0.00,VWS V14.01,2013-03-08 02:10:00,
2013-03-07 21:15:00,29.5,25.0,30.40,NNW,347,4.0,4.0,83,0.00,,SKC,0.00,VWS V14.01,2013-03-08 02:15:00,
2013-03-07 21:20:00,29.6,24.8,30.40,North,5,1.0,7.0,82,0.00,,SKC,0.00,VWS V14.01,2013-03-08 02:20:00,
2013-03-07 21:26:00,29.6,24.8,30.40,North,349,2.0,7.0,82,0.00,,SKC,0.00,VWS V14.01,2013-03-08 02:26:00,
2013-03-07 21:30:00,28.8,24.3,30.40,NNW,332,0.0,4.0,83,0.00,,SKC,0.00,VWS V14.01,2013-03-08 02:30:00,
2013-03-07 21:31:00,29.5,25.0,30.40,NNW,335,3.0,3.0,83,0.00,,SKC,0.00,VWS V14.01,2013-03-08 02:31:00,
2013-03-07 21:36:00,29.6,24.8,30.40,NNW,343,4.0,6.0,82,0.00,,SKC,0.00,VWS V14.01,2013-03-08 02:36:00,
2013-03-07 21:41:00,29.6,24.8,30.40,North,11,1.0,6.0,82,0.00,,SKC,0.00,VWS V14.01,2013-03-08 02:41:00,
2013-03-07 21:46:00,29.5,24.7,30.40,NW,305,2.0,6.0,82,0.00,,SKC,0.00,VWS V14.01,2013-03-08 02:46:00,
2013-03-07 21:51:00,29.5,25.0,30.40,West,270,0.0,6.0,83,0.00,,SKC,0.00,VWS V14.01,2013-03-08 02:51:00,
2013-03-07 21:56:00,29.5,24.7,30.40,NW,323,1.0,7.0,82,0.00,,SKC,0.00,VWS V14.01,2013-03-08 02:56:00,
2013-03-07 22:00:00,28.2,24.0,30.41,North,352,1.0,4.0,84,0.00,,SKC,0.00,VWS V14.01,2013-03-08 03:00:00,
2013-03-07 22:01:00,29.4,24.9,30.40,NNW,330,1.0,2.0,83,0.00,,SKC,0.00,VWS V14.01,2013-03-08 03:01:00,
2013-03-07 22:06:00,29.4,24.6,30.40,NNW,329,1.0,4.0,82,0.00,,SKC,0.00,VWS V14.01,2013-03-08 03:06:00,
2013-03-07 22:11:00,29.3,24.8,30.40,West,268,2.0,4.0,83,0.00,,SKC,0.00,VWS V14.01,2013-03-08 03:11:00,
2013-03-07 22:16:00,29.2,24.7,30.40,NW,314,2.0,4.0,83,0.00,,SKC,0.00,VWS V14.01,2013-03-08 03:16:00,
2013-03-07 22:21:00,29.1,24.6,30.40,NNW,332,1.0,4.0,83,0.00,,SKC,0.00,VWS V14.01,2013-03-08 03:21:00,
2013-03-07 22:26:00,28.9,24.4,30.40,NNW,339,2.0,4.0,83,0.00,,SKC,0.00,VWS V14.01,2013-03-08 03:26:00,
2013-03-07 22:30:00,27.9,23.7,30.41,NE,44,0.0,3.0,84,0.00,,SKC,0.00,VWS V14.01,2013-03-08 03:30:00,
2013-03-07 22:31:00,28.8,24.3,30.40,NNW,332,1.0,1.0,83,0.00,,SKC,0.00,VWS V14.01,2013-03-08 03:31:00,
2013-03-07 22:36:00,28.6,24.4,30.40,North,356,0.0,1.0,84,0.00,,SKC,0.00,VWS V14.01,2013-03-08 03:36:00,
2013-03-07 22:41:00,28.4,24.2,30.40,NNW,333,1.0,2.0,84,0.00,,SKC,0.00,VWS V14.01,2013-03-08 03:41:00,
2013-03-07 22:46:00,28.4,24.2,30.41,North,357,0.0,2.0,84,0.00,,SKC,0.00,VWS V14.01,2013-03-08 03:46:00,
2013-03-07 22:51:00,28.3,24.1,30.40,North,1,2.0,4.0,84,0.00,,SKC,0.00,VWS V14.01,2013-03-08 03:51:00,
2013-03-07 22:56:00,28.2,24.0,30.40,NNW,333,1.0,4.0,84,0.00,,SKC,0.00,VWS V14.01,2013-03-08 03:56:00,
2013-03-07 23:00:00,27.5,23.6,30.41,North,6,1.0,2.0,85,0.00,,SKC,0.00,VWS V14.01,2013-03-08 04:00:00,
2013-03-07 23:01:00,28.2,24.0,30.41,NNW,344,2.0,3.0,84,0.00,,SKC,0.00,VWS V14.01,2013-03-08 04:01:00,
2013-03-07 23:06:00,28.1,23.9,30.41,NW,308,1.0,3.0,84,0.00,,SKC,0.00,VWS V14.01,2013-03-08 04:06:00,
2013-03-07 23:11:00,28.1,23.9,30.41,NNW,328,1.0,3.0,84,0.00,,SKC,0.00,VWS V14.01,2013-03-08 04:11:00,
2013-03-07 23:16:00,28.1,23.9,30.41,NNW,329,1.0,3.0,84,0.00,,SKC,0.00,VWS V14.01,2013-03-08 04:16:00,
2013-03-07 23:21:00,28.1,23.9,30.41,NNW,332,0.0,3.0,84,0.00,,SKC,0.00,VWS V14.01,2013-03-08 04:21:00,
2013-03-07 23:26:00,28.0,23.8,30.40,North,11,0.0,3.0,84,0.00,,SKC,0.00,VWS V14.01,2013-03-08 04:26:00,
2013-03-07 23:30:00,27.0,23.6,30.39,ENE,61,0.0,2.0,87,0.00,,SKC,0.00,VWS V14.01,2013-03-08 04:30:00,
2013-03-07 23:32:00,27.9,23.7,30.41,NE,44,0.0,1.0,84,0.00,,SKC,0.00,VWS V14.01,2013-03-08 04:32:00,
2013-03-07 23:37:00,27.7,23.8,30.41,NE,39,0.0,1.0,85,0.00,,SKC,0.00,VWS V14.01,2013-03-08 04:37:00,
2013-03-07 23:42:00,27.8,23.9,30.40,NNE,15,1.0,2.0,85,0.00,,SKC,0.00,VWS V14.01,2013-03-08 04:42:00,
2013-03-07 23:47:00,27.7,23.8,30.41,NNE,25,1.0,2.0,85,0.00,,SKC,0.00,VWS V14.01,2013-03-08 04:47:00,
2013-03-07 23:52:00,27.6,23.7,30.41,North,352,1.0,2.0,85,0.00,,SKC,0.00,VWS V14.01,2013-03-08 04:52:00,
2013-03-07 23:57:00,27.6,23.7,30.41,North,6,0.0,2.0,85,0.00,,SKC,0.00,VWS V14.01,2013-03-08 04:57:00,